Вернуться в каталог

OPS 5960

АктивенНавигацияMEO
NORAD 4630·PAYLOAD·🇺🇸 United States

Запущен Nov 6, 1970 с Cape Canaveral Space Force Station

Loading…

Ближайшие Пролёты (ближайшие 24 часа)

TLE

СвежийSource: Space-Track

Эпоха: Sep 14, 2026, 00:00 UTC

1 04630U 70093A   26257.00062559 -.00000162  00000-0  00000-0 0  9991
2 04630  15.2567  34.5448 1359566 281.4234  47.9784  1.20217156244901

Отслеживайте OPS 5960 в реальном времени с AllMySat

Download on the App Store